EN

Hourly Weather Bolshoe Churaevo

Today, 24 October, Saturday

Time Temperature Precipitation Wind Pressure Humidity
00:00 -2°C° 0.7 mm 5 mps 744 mmHg 91%
01:00 -3°C° 0.7 mm 6 mps 743 mmHg 96%
02:00 -1°C° 1 mm 5 mps 743 mmHg 96%
03:00 -1°C° 1 mm 5 mps 742 mmHg 97%
04:00 0°C° 1 mm 4 mps 742 mmHg 98%
05:00 0°C° 0.5 mm 5 mps 741 mmHg 97%
06:00 -1°C° 0.5 mm 6 mps 740 mmHg 97%
07:00 +1°C° 0.5 mm 6 mps 740 mmHg 97%
08:00 +1°C° 0.2 mm 6 mps 739 mmHg 95%
09:00 0°C° 0.2 mm 7 mps 739 mmHg 94%
10:00 0°C° 0.2 mm 7 mps 739 mmHg 93%
11:00 +2°C° 0.7 mm 7 mps 738 mmHg 93%
12:00 +2°C° 0.7 mm 7 mps 738 mmHg 93%
13:00 +2°C° 0.7 mm 7 mps 737 mmHg 93%
14:00 +3°C° 1.1 mm 7 mps 737 mmHg 95%
15:00 +4°C° 1.1 mm 7 mps 737 mmHg 96%
16:00 +5°C° 1.1 mm 8 mps 737 mmHg 97%
17:00 +5°C° 0.6 mm 7 mps 737 mmHg 97%
18:00 +7°C° 0.6 mm 6 mps 737 mmHg 98%
19:00 +8°C° 0.6 mm 5 mps 737 mmHg 98%
20:00 +8°C° 0.1 mm 5 mps 737 mmHg 98%
21:00 +8°C° 0.1 mm 5 mps 737 mmHg 98%
22:00 +8°C° 0.1 mm 4 mps 737 mmHg 98%
23:00 +8°C° 0.1 mm 4 mps 738 mmHg 98%

Tomorrow, 25 October, Sunday

Time Temperature Precipitation Wind Pressure Humidity
00:00 +8°C° 0.1 mm 4 mps 738 mmHg 98%
01:00 +8°C° 0.1 mm 4 mps 738 mmHg 98%
02:00 +8°C° 0.1 mm 4 mps 738 mmHg 98%
03:00 +9°C° 0.1 mm 3 mps 738 mmHg 98%
04:00 +9°C° 0.1 mm 2 mps 738 mmHg 98%
05:00 +9°C° 0.1 mm 2 mps 738 mmHg 98%
06:00 +8°C° 0.1 mm 2 mps 738 mmHg 99%
07:00 +8°C° 0.1 mm 2 mps 738 mmHg 99%
08:00 +9°C° 0.2 mm 3 mps 738 mmHg 97%
09:00 +10°C° 0.2 mm 3 mps 738 mmHg 96%
10:00 +10°C° 0.2 mm 3 mps 738 mmHg 94%
11:00 +11°C° 0 mm 3 mps 738 mmHg 93%
12:00 +11°C° 0 mm 3 mps 737 mmHg 91%
13:00 +12°C° 0 mm 4 mps 737 mmHg 90%
14:00 +11°C° 1.1 mm 4 mps 736 mmHg 92%
15:00 +11°C° 1.1 mm 4 mps 736 mmHg 95%
16:00 +10°C° 1.1 mm 5 mps 735 mmHg 97%
17:00 +10°C° 1.7 mm 6 mps 735 mmHg 97%
18:00 +10°C° 1.7 mm 6 mps 734 mmHg 97%
19:00 +10°C° 1.7 mm 7 mps 734 mmHg 96%
20:00 +10°C° 0.7 mm 7 mps 733 mmHg 96%
21:00 +10°C° 0.7 mm 7 mps 733 mmHg 96%
22:00 +10°C° 0.7 mm 7 mps 732 mmHg 95%
23:00 +10°C° 1 mm 7 mps 732 mmHg 95%

Day after tomorrow, 26 October, Monday

Time Temperature Precipitation Wind Pressure Humidity
00:00 +10°C° 1 mm 6 mps 731 mmHg 95%
01:00 +10°C° 1 mm 6 mps 731 mmHg 96%
02:00 +10°C° 2.2 mm 6 mps 731 mmHg 93%
03:00 +9°C° 2.2 mm 7 mps 730 mmHg 91%
04:00 +9°C° 2.2 mm 7 mps 730 mmHg 89%
05:00 +7°C° 0.1 mm 8 mps 731 mmHg 87%
06:00 +6°C° 0.1 mm 8 mps 732 mmHg 86%
07:00 +5°C° 0.1 mm 9 mps 732 mmHg 84%
08:00 +3°C° 0.1 mm 9 mps 733 mmHg 82%
09:00 +2°C° 0.1 mm 9 mps 734 mmHg 80%
10:00 +2°C° 0.1 mm 9 mps 735 mmHg 78%
11:00 +2°C° 0 mm 9 mps 735 mmHg 72%
12:00 +2°C° 0 mm 9 mps 736 mmHg 67%
13:00 +2°C° 0 mm 9 mps 736 mmHg 62%
14:00 +2°C° 0 mm 8 mps 736 mmHg 61%
15:00 +2°C° 0 mm 8 mps 737 mmHg 60%
16:00 +1°C° 0 mm 8 mps 737 mmHg 59%
17:00 0°C° 0 mm 8 mps 737 mmHg 63%
18:00 0°C° 0 mm 8 mps 738 mmHg 67%
19:00 -1°C° 0 mm 7 mps 738 mmHg 71%
20:00 -2°C° 0 mm 7 mps 738 mmHg 77%
21:00 -2°C° 0 mm 7 mps 738 mmHg 83%
22:00 -3°C° 0 mm 7 mps 738 mmHg 89%
23:00 -3°C° 0.1 mm 7 mps 738 mmHg 85%

, 27 October, Tuesday

Time Temperature Precipitation Wind Pressure Humidity
00:00 -4°C° 0.1 mm 8 mps 738 mmHg 80%
01:00 -4°C° 0.1 mm 8 mps 738 mmHg 76%
02:00 -5°C° 0 mm 8 mps 739 mmHg 76%
03:00 -5°C° 0 mm 8 mps 739 mmHg 76%
04:00 -5°C° 0 mm 8 mps 740 mmHg 77%
05:00 -5°C° 0 mm 9 mps 740 mmHg 76%
06:00 -5°C° 0 mm 9 mps 740 mmHg 76%
07:00 -5°C° 0 mm 9 mps 740 mmHg 76%
08:00 -5°C° 0 mm 9 mps 741 mmHg 74%
09:00 -4°C° 0 mm 9 mps 741 mmHg 71%
10:00 -3°C° 0 mm 9 mps 741 mmHg 69%
11:00 -3°C° 0 mm 9 mps 742 mmHg 68%
12:00 -1°C° 0 mm 9 mps 742 mmHg 66%
13:00 -1°C° 0 mm 8 mps 743 mmHg 65%
14:00 -1°C° 0 mm 8 mps 743 mmHg 67%
15:00 -1°C° 0 mm 8 mps 743 mmHg 69%
16:00 -2°C° 0 mm 7 mps 744 mmHg 71%
17:00 -2°C° 0 mm 6 mps 745 mmHg 73%
18:00 -3°C° 0 mm 6 mps 745 mmHg 76%
19:00 -2°C° 0 mm 5 mps 746 mmHg 78%
20:00 -3°C° 0 mm 4 mps 746 mmHg 79%
21:00 -3°C° 0 mm 4 mps 747 mmHg 79%
22:00 -2°C° 0 mm 3 mps 747 mmHg 80%
23:00 -2°C° 0 mm 3 mps 748 mmHg 80%

27 October, Tuesday

Time Temperature Precipitation Wind Pressure Humidity
00:00 -4°C° 0.1 mm 8 mps 738 mmHg 80%
01:00 -4°C° 0.1 mm 8 mps 738 mmHg 76%
02:00 -5°C° 0 mm 8 mps 739 mmHg 76%
03:00 -5°C° 0 mm 8 mps 739 mmHg 76%
04:00 -5°C° 0 mm 8 mps 740 mmHg 77%
05:00 -5°C° 0 mm 9 mps 740 mmHg 76%
06:00 -5°C° 0 mm 9 mps 740 mmHg 76%
07:00 -5°C° 0 mm 9 mps 740 mmHg 76%
08:00 -5°C° 0 mm 9 mps 741 mmHg 74%
09:00 -4°C° 0 mm 9 mps 741 mmHg 71%
10:00 -3°C° 0 mm 9 mps 741 mmHg 69%
11:00 -3°C° 0 mm 9 mps 742 mmHg 68%
12:00 -1°C° 0 mm 9 mps 742 mmHg 66%
13:00 -1°C° 0 mm 8 mps 743 mmHg 65%
14:00 -1°C° 0 mm 8 mps 743 mmHg 67%
15:00 -1°C° 0 mm 8 mps 743 mmHg 69%
16:00 -2°C° 0 mm 7 mps 744 mmHg 71%
17:00 -2°C° 0 mm 6 mps 745 mmHg 73%
18:00 -3°C° 0 mm 6 mps 745 mmHg 76%
19:00 -2°C° 0 mm 5 mps 746 mmHg 78%
20:00 -3°C° 0 mm 4 mps 746 mmHg 79%
21:00 -3°C° 0 mm 4 mps 747 mmHg 79%
22:00 -2°C° 0 mm 3 mps 747 mmHg 80%
23:00 -2°C° 0 mm 3 mps 748 mmHg 80%

28 October, Wednesday

Time Temperature Precipitation Wind Pressure Humidity
00:00 -2°C° 0 mm 2 mps 748 mmHg 81%
01:00 -2°C° 0 mm 2 mps 748 mmHg 81%
02:00 -3°C° 0 mm 2 mps 749 mmHg 82%
03:00 -3°C° 0 mm 2 mps 749 mmHg 83%
04:00 -1°C° 0 mm 1 mps 749 mmHg 83%
05:00 -1°C° 0 mm 1 mps 750 mmHg 83%
06:00 -1°C° 0 mm 1 mps 750 mmHg 83%
07:00 -1°C° 0 mm 1 mps 751 mmHg 83%
08:00 0°C° 0 mm 1 mps 751 mmHg 74%
09:00 +1°C° 0 mm 1 mps 751 mmHg 65%
10:00 +3°C° 0 mm 1 mps 752 mmHg 56%
11:00 +4°C° 0 mm 1 mps 752 mmHg 50%
12:00 +4°C° 0 mm 1 mps 752 mmHg 45%
13:00 +5°C° 0 mm 1 mps 753 mmHg 39%
14:00 +5°C° 0 mm 1 mps 753 mmHg 43%
15:00 +4°C° 0 mm 1 mps 753 mmHg 47%
16:00 +4°C° 0 mm 1 mps 753 mmHg 51%
17:00 +3°C° 0 mm 1 mps 754 mmHg 56%
18:00 +2°C° 0 mm 1 mps 754 mmHg 61%
19:00 +1°C° 0 mm 1 mps 754 mmHg 65%
20:00 +1°C° 0 mm 1 mps 755 mmHg 65%
21:00 +1°C° 0 mm 1 mps 755 mmHg 65%
22:00 +1°C° 0 mm 1 mps 755 mmHg 64%
23:00 0°C° 0 mm 1 mps 755 mmHg 62%

29 October, Thursday

Time Temperature Precipitation Wind Pressure Humidity
00:00 0°C° 0 mm 1 mps 755 mmHg 60%
01:00 0°C° 0 mm 1 mps 756 mmHg 59%
02:00 0°C° 0 mm 1 mps 756 mmHg 57%
03:00 0°C° 0 mm 1 mps 756 mmHg 56%
04:00 0°C° 0 mm 1 mps 756 mmHg 55%
05:00 0°C° 0 mm 1 mps 756 mmHg 54%
06:00 0°C° 0 mm 1 mps 757 mmHg 54%
07:00 0°C° 0 mm 1 mps 757 mmHg 54%
08:00 -1°C° 0 mm 2 mps 757 mmHg 51%
09:00 +1°C° 0 mm 2 mps 757 mmHg 49%
10:00 +2°C° 0 mm 2 mps 757 mmHg 46%
11:00 +2°C° 0 mm 3 mps 757 mmHg 47%
12:00 +3°C° 0 mm 3 mps 757 mmHg 47%
13:00 +4°C° 0 mm 3 mps 757 mmHg 47%
14:00 +3°C° 0 mm 3 mps 757 mmHg 51%
15:00 +3°C° 0 mm 3 mps 757 mmHg 54%
16:00 +2°C° 0 mm 3 mps 757 mmHg 58%
17:00 +3°C° 0 mm 2 mps 757 mmHg 60%
18:00 +2°C° 0 mm 2 mps 757 mmHg 63%
19:00 +1°C° 0 mm 2 mps 757 mmHg 66%
20:00 +1°C° 0 mm 2 mps 757 mmHg 65%
21:00 +1°C° 0 mm 2 mps 757 mmHg 65%
22:00 +1°C° 0 mm 2 mps 757 mmHg 65%
23:00 +1°C° 0 mm 2 mps 757 mmHg 65%
Show more